User: anonymous   Login
Location: Caltech
(34.1382°N, 118.1253°W)
Time: 18:53:09
(UTC-07:00)
Language:

ITAMSAT 1 - Orbit

View from above orbital plane
View from above orbital plane
View from above satellite
View from above satellite

Ground track
Ground track

The orbit data is extracted from the following two-line orbital elements,

1 22826U 93061D   16241.46374449  .00000019  00000-0  24635-4 0  9998
2 22826  98.7606 198.2991 0010075  96.4028 263.8301 14.30291147195739
Epoch (UTC): 28 August 2016 11:07:47
Eccentricity: 0.0010075
inclination: 98.7606°
perigee height: 783 km
apogee height: 798 km
right ascension of ascending node: 198.2991°
argument of perigee: 96.4028°
revolutions per day: 14.30291147
mean anomaly at epoch: 263.8301°
orbit number at epoch: 19573

The dashed part of the orbit path shows where the satellite is in the earth's shadow,  

DLR